| time (UTC) | temp C | wind direction | speed KPH | gust KPH | rain 1hr cm | rain 24hr cm | rain mn cm | humidity % | barometer mb |
| 20260509075203 | 15 | 275 | 1.6 | 8.0 | 0.00 | 0.00 | 0.00 | 79 | 1017.6 |
| 20260509074701 | 15 | 315 | 3.2 | 6.4 | 0.00 | 0.00 | 0.00 | 81 | 1017.6 |
| 20260509074202 | 15 | 257 | 4.8 | 6.4 | 0.00 | 0.00 | 0.00 | 80 | 1017.5 |
| 20260509073701 | 14 | 323 | 1.6 | 4.8 | 0.00 | 0.00 | 0.00 | 81 | 1017.5 |
| 20260509073201 | 14 | 292 | 3.2 | 4.8 | 0.00 | 0.00 | 0.00 | 83 | 1017.5 |
| 20260509072701 | 13 | 19 | 0.0 | 6.4 | 0.00 | 0.00 | 0.00 | 82 | 1017.5 |
| 20260509072201 | 13 | 302 | 1.6 | 4.8 | 0.00 | 0.00 | 0.00 | 83 | 1017.5 |
| 20260509071701 | 13 | 244 | 1.6 | 6.4 | 0.00 | 0.00 | 0.00 | 84 | 1017.5 |
| 20260509071202 | 13 | 290 | 1.6 | 6.4 | 0.00 | 0.00 | 0.00 | 85 | 1017.5 |
| 20260509070701 | 13 | 244 | 1.6 | 4.8 | 0.00 | 0.00 | 0.00 | 85 | 1017.5 |
| 20260509070202 | 13 | 311 | 0.0 | 4.8 | 0.00 | 0.00 | 0.00 | 85 | 1017.5 |
| 20260509065701 | 13 | 350 | 3.2 | 6.4 | 0.00 | 0.00 | 0.00 | 86 | 1017.5 |
| 20260509065201 | 12 | 265 | 3.2 | 6.4 | 0.00 | 0.00 | 0.00 | 86 | 1017.5 |
| 20260509064702 | 12 | 303 | 4.8 | 8.0 | 0.00 | 0.00 | 0.00 | 87 | 1017.4 |
| 20260509064202 | 12 | 315 | 3.2 | 4.8 | 0.00 | 0.00 | 0.00 | 88 | 1017.5 |
| 20260509063701 | 12 | 282 | 3.2 | 6.4 | 0.00 | 0.00 | 0.00 | 88 | 1017.5 |
| 20260509063201 | 12 | 327 | 4.8 | 8.0 | 0.00 | 0.00 | 0.00 | 88 | 1017.5 |
| 20260509062702 | 11 | 355 | 3.2 | 8.0 | 0.00 | 0.00 | 0.00 | 89 | 1017.5 |
| 20260509062201 | 11 | 263 | 3.2 | 8.0 | 0.00 | 0.00 | 0.00 | 89 | 1017.5 |
| 20260509061702 | 11 | 225 | 1.6 | 4.8 | 0.00 | 0.00 | 0.00 | 90 | 1017.4 |
| 20260509061201 | 11 | 184 | 1.6 | 4.8 | 0.00 | 0.00 | 0.00 | 90 | 1017.4 |
| 20260509060702 | 11 | 173 | 3.2 | 4.8 | 0.00 | 0.00 | 0.00 | 90 | 1017.4 |
| 20260509060202 | 11 | 188 | 1.6 | 3.2 | 0.00 | 0.00 | 0.00 | 90 | 1017.3 |
| 20260509055703 | 11 | 167 | 1.6 | 3.2 | 0.00 | 0.00 | 0.00 | 91 | 1017.3 |
| 20260509055202 | 10 | 165 | 0.0 | 1.6 | 0.00 | 0.00 | 0.00 | 91 | 1017.3 |
| 20260509054701 | 10 | 203 | 0.0 | 1.6 | 0.00 | 0.00 | 0.00 | 91 | 1017.3 |
| 20260509054202 | 10 | 134 | 0.0 | 1.6 | 0.00 | 0.00 | 0.00 | 91 | 1017.2 |
| 20260509053701 | 10 | 134 | 0.0 | 1.6 | 0.00 | 0.00 | 0.00 | 91 | 1017.2 |
| 20260509053201 | 10 | 134 | 0.0 | 1.6 | 0.00 | 0.00 | 0.00 | 91 | 1017.2 |
| 20260509052701 | 10 | 135 | 0.0 | 1.6 | 0.00 | 0.00 | 0.00 | 91 | 1017.1 |
| 20260509052201 | 9 | 157 | 0.0 | 0.0 | 0.00 | 0.00 | 0.00 | 91 | 1017.1 |
| 20260509051701 | 9 | 157 | 0.0 | 0.0 | 0.00 | 0.00 | 0.00 | 91 | 1017.0 |
| 20260509051202 | 8 | 157 | 0.0 | 0.0 | 0.00 | 0.00 | 0.00 | 91 | 1017.0 |
| 20260509050701 | 8 | 157 | 0.0 | 1.6 | 0.00 | 0.00 | 0.00 | 91 | 1016.9 |
| 20260509050202 | 8 | 157 | 0.0 | 1.6 | 0.00 | 0.00 | 0.00 | 91 | 1016.9 |
| 20260509045701 | 8 | 156 | 0.0 | 0.0 | 0.00 | 0.00 | 0.00 | 90 | 1016.9 |
| 20260509045201 | 8 | 156 | 0.0 | 0.0 | 0.00 | 0.00 | 0.00 | 90 | 1016.8 |
| 20260509044702 | 7 | 156 | 0.0 | 0.0 | 0.00 | 0.00 | 0.00 | 90 | 1016.8 |
| 20260509044202 | 7 | 156 | 0.0 | 0.0 | 0.00 | 0.00 | 0.00 | 90 | 1016.8 |
| 20260509043702 | 8 | 157 | 0.0 | 0.0 | 0.00 | 0.00 | 0.00 | 90 | 1016.7 |
| 20260509043202 | 8 | 157 | 0.0 | 0.0 | 0.00 | 0.00 | 0.00 | 90 | 1016.7 |
| 20260509042701 | 8 | 157 | 0.0 | 0.0 | 0.00 | 0.00 | 0.00 | 90 | 1016.7 |
| 20260509042202 | 8 | 157 | 0.0 | 1.6 | 0.00 | 0.00 | 0.00 | 90 | 1016.7 |
| 20260509041702 | 8 | 157 | 0.0 | 0.0 | 0.00 | 0.00 | 0.00 | 90 | 1016.6 |
| 20260509041201 | 8 | 158 | 0.0 | 3.2 | 0.00 | 0.00 | 0.00 | 90 | 1016.6 |
| 20260509040702 | 8 | 155 | 1.6 | 1.6 | 0.00 | 0.00 | 0.00 | 89 | 1016.6 |
| 20260509040201 | 8 | 150 | 0.0 | 1.6 | 0.00 | 0.00 | 0.00 | 89 | 1016.6 |
| 20260509035702 | 8 | 165 | 0.0 | 0.0 | 0.00 | 0.00 | 0.00 | 89 | 1016.6 |
| 20260509035202 | 8 | 165 | 0.0 | 0.0 | 0.00 | 0.00 | 0.00 | 89 | 1016.6 |
| 20260509034701 | 8 | 165 | 0.0 | 0.0 | 0.00 | 0.00 | 0.00 | 89 | 1016.6 |
| 20260509034202 | 8 | 165 | 0.0 | 0.0 | 0.00 | 0.00 | 0.00 | 89 | 1016.6 |
| 20260509033702 | 8 | 165 | 0.0 | 0.0 | 0.00 | 0.00 | 0.00 | 89 | 1016.6 |
| 20260509033201 | 8 | 165 | 0.0 | 3.2 | 0.00 | 0.00 | 0.00 | 89 | 1016.6 |
| 20260509032701 | 8 | 145 | 0.0 | 3.2 | 0.00 | 0.00 | 0.00 | 89 | 1016.6 |
| 20260509032201 | 8 | 120 | 0.0 | 1.6 | 0.00 | 0.00 | 0.00 | 89 | 1016.7 |
| 20260509031702 | 8 | 180 | 0.0 | 0.0 | 0.00 | 0.00 | 0.00 | 89 | 1016.7 |
| 20260509030935 | 9 | 200 | 0.0 | 1.6 | 0.00 | 0.00 | 0.00 | 89 | 1016.7 |
| 20260509030435 | 9 | 163 | 0.0 | 1.6 | 0.00 | 0.00 | 0.00 | 89 | 1016.7 |
| 20260509025936 | 9 | 170 | 0.0 | 1.6 | 0.00 | 0.00 | 0.00 | 90 | 1016.6 |
| 20260509025435 | 10 | 214 | 0.0 | 0.0 | 0.00 | 0.00 | 0.00 | 90 | 1016.6 |
| 20260509024935 | 10 | 215 | 0.0 | 1.6 | 0.00 | 0.00 | 0.00 | 90 | 1016.7 |
| 20260509024435 | 10 | 219 | 0.0 | 1.6 | 0.00 | 0.00 | 0.00 | 89 | 1016.6 |
| 20260509023935 | 10 | 130 | 0.0 | 3.2 | 0.00 | 0.00 | 0.00 | 89 | 1016.6 |
| 20260509023435 | 10 | 178 | 1.6 | 3.2 | 0.00 | 0.00 | 0.00 | 89 | 1016.7 |
| 20260509022935 | 9 | 113 | 1.6 | 3.2 | 0.00 | 0.00 | 0.00 | 89 | 1016.7 |
| 20260509022436 | 10 | 182 | 0.0 | 1.6 | 0.00 | 0.00 | 0.00 | 89 | 1016.7 |
| 20260509021935 | 10 | 188 | 0.0 | 1.6 | 0.00 | 0.00 | 0.00 | 89 | 1016.7 |
| 20260509021436 | 10 | 181 | 0.0 | 1.6 | 0.00 | 0.00 | 0.00 | 89 | 1016.7 |
| 20260509020935 | 10 | 181 | 0.0 | 0.0 | 0.00 | 0.00 | 0.00 | 89 | 1016.6 |
| 20260509020436 | 10 | 181 | 0.0 | 0.0 | 0.00 | 0.00 | 0.00 | 89 | 1016.6 |
| 20260509015935 | 10 | 181 | 0.0 | 0.0 | 0.00 | 0.00 | 0.00 | 89 | 1016.6 |
| 20260509015436 | 10 | 181 | 0.0 | 1.6 | 0.00 | 0.00 | 0.00 | 89 | 1016.6 |
| 20260509014936 | 10 | 184 | 0.0 | 1.6 | 0.00 | 0.00 | 0.00 | 89 | 1016.7 |
| 20260509014436 | 10 | 186 | 0.0 | 3.2 | 0.00 | 0.00 | 0.00 | 89 | 1016.8 |
| 20260509013935 | 10 | 158 | 3.2 | 4.8 | 0.00 | 0.00 | 0.00 | 89 | 1016.7 |
| 20260509013436 | 10 | 142 | 3.2 | 4.8 | 0.00 | 0.00 | 0.00 | 88 | 1016.7 |
| 20260509012935 | 10 | 207 | 0.0 | 0.0 | 0.00 | 0.00 | 0.00 | 88 | 1016.7 |
| 20260509012435 | 10 | 271 | 0.0 | 0.0 | 0.00 | 0.00 | 0.00 | 88 | 1016.7 |
| 20260509011936 | 10 | 321 | 0.0 | 0.0 | 0.00 | 0.00 | 0.00 | 88 | 1016.5 |
| 20260509011436 | 11 | 321 | 0.0 | 0.0 | 0.00 | 0.00 | 0.00 | 89 | 1016.5 |
| 20260509010935 | 11 | 321 | 0.0 | 1.6 | 0.00 | 0.00 | 0.00 | 89 | 1016.7 |
| 20260509010435 | 11 | 329 | 0.0 | 3.2 | 0.00 | 0.00 | 0.00 | 89 | 1016.7 |
| 20260509005937 | 11 | 104 | 0.0 | 0.0 | 0.00 | 0.00 | 0.00 | 88 | 1016.7 |
| 20260509005435 | 11 | 101 | 1.6 | 3.2 | 0.00 | 0.00 | 0.00 | 88 | 1016.7 |
| 20260509004935 | 11 | 125 | 0.0 | 1.6 | 0.00 | 0.00 | 0.00 | 88 | 1016.7 |
| 20260509004436 | 11 | 171 | 0.0 | 1.6 | 0.00 | 0.00 | 0.00 | 88 | 1016.7 |
| 20260509003936 | 11 | 165 | 0.0 | 0.0 | 0.00 | 0.00 | 0.00 | 88 | 1016.7 |
| 20260509003437 | 11 | 165 | 0.0 | 0.0 | 0.00 | 0.00 | 0.00 | 88 | 1016.7 |
| 20260509002936 | 11 | 165 | 0.0 | 1.6 | 0.00 | 0.00 | 0.00 | 89 | 1016.7 |
| 20260509002436 | 11 | 165 | 1.6 | 3.2 | 0.00 | 0.00 | 0.00 | 88 | 1016.8 |
| 20260509001936 | 11 | 78 | 1.6 | 1.6 | 0.00 | 0.00 | 0.00 | 88 | 1016.7 |
| 20260509001435 | 11 | 5 | 0.0 | 0.0 | 0.00 | 0.00 | 0.00 | 88 | 1016.8 |
| 20260509000937 | 11 | 5 | 0.0 | 1.6 | 0.00 | 0.00 | 0.00 | 88 | 1016.8 |
| 20260509000435 | 11 | 134 | 0.0 | 1.6 | 0.00 | 0.00 | 0.00 | 88 | 1016.8 |
| 20260508235936 | 11 | 113 | 0.0 | 1.6 | 0.00 | 0.00 | 0.00 | 88 | 1016.8 |
| 20260508235436 | 11 | 105 | 0.0 | 1.6 | 0.00 | 0.00 | 0.00 | 88 | 1016.7 |
| 20260508234935 | 10 | 101 | 0.0 | 1.6 | 0.00 | 0.00 | 0.00 | 88 | 1016.7 |
| 20260508234435 | 10 | 106 | 1.6 | 3.2 | 0.00 | 0.00 | 0.00 | 88 | 1016.7 |
| 20260508233935 | 10 | 136 | 0.0 | 1.6 | 0.00 | 0.00 | 0.00 | 88 | 1016.7 |
| 20260508233436 | 10 | 136 | 0.0 | 1.6 | 0.00 | 0.00 | 0.00 | 88 | 1016.7 |
| 20260508232936 | 10 | 136 | 0.0 | 1.6 | 0.00 | 0.00 | 0.00 | 88 | 1016.7 |
| 20260508232435 | 10 | 136 | 0.0 | 3.2 | 0.00 | 0.00 | 0.00 | 88 | 1016.7 |
| 20260508231936 | 10 | 86 | 0.0 | 4.8 | 0.00 | 0.00 | 0.00 | 87 | 1016.7 |
| 20260508231436 | 10 | 84 | 0.0 | 1.6 | 0.00 | 0.00 | 0.00 | 87 | 1016.7 |
| 20260508230935 | 10 | 132 | 0.0 | 1.6 | 0.00 | 0.00 | 0.00 | 87 | 1016.8 |
| 20260508230435 | 10 | 132 | 0.0 | 1.6 | 0.00 | 0.00 | 0.00 | 87 | 1016.7 |
| 20260508225936 | 10 | 132 | 0.0 | 0.0 | 0.00 | 0.00 | 0.00 | 87 | 1016.6 |
| 20260508225436 | 10 | 132 | 0.0 | 0.0 | 0.00 | 0.00 | 0.00 | 87 | 1016.6 |
| 20260508224936 | 10 | 132 | 0.0 | 0.0 | 0.00 | 0.00 | 0.00 | 87 | 1016.6 |
| 20260508224436 | 10 | 132 | 0.0 | 3.2 | 0.00 | 0.00 | 0.00 | 87 | 1016.7 |
| 20260508223936 | 10 | 160 | 0.0 | 0.0 | 0.00 | 0.00 | 0.00 | 87 | 1016.7 |
| 20260508223436 | 10 | 157 | 0.0 | 3.2 | 0.00 | 0.00 | 0.00 | 86 | 1016.7 |
| 20260508222936 | 10 | 130 | 0.0 | 3.2 | 0.00 | 0.00 | 0.00 | 86 | 1016.7 |
| 20260508222435 | 10 | 180 | 0.0 | 4.8 | 0.00 | 0.00 | 0.00 | 86 | 1016.6 |
| 20260508221936 | 10 | 142 | 0.0 | 1.6 | 0.00 | 0.00 | 0.00 | 85 | 1016.6 |
| 20260508221436 | 10 | 142 | 3.2 | 4.8 | 0.00 | 0.00 | 0.00 | 85 | 1016.6 |
| 20260508220935 | 10 | 76 | 0.0 | 1.6 | 0.00 | 0.00 | 0.00 | 84 | 1016.6 |
| 20260508220436 | 11 | 76 | 0.0 | 1.6 | 0.00 | 0.00 | 0.00 | 84 | 1016.5 |
| 20260508215935 | 11 | 76 | 0.0 | 0.0 | 0.00 | 0.00 | 0.00 | 84 | 1016.4 |
| 20260508215436 | 11 | 76 | 0.0 | 1.6 | 0.00 | 0.00 | 0.00 | 84 | 1016.4 |
| 20260508214936 | 11 | 82 | 0.0 | 1.6 | 0.00 | 0.00 | 0.00 | 84 | 1016.5 |
| 20260508214435 | 11 | 119 | 0.0 | 1.6 | 0.00 | 0.00 | 0.00 | 83 | 1016.4 |
| 20260508213935 | 11 | 121 | 0.0 | 1.6 | 0.00 | 0.00 | 0.00 | 83 | 1016.3 |
| 20260508213435 | 11 | 121 | 0.0 | 1.6 | 0.00 | 0.00 | 0.00 | 83 | 1016.4 |
| 20260508212936 | 11 | 113 | 0.0 | 1.6 | 0.00 | 0.00 | 0.00 | 83 | 1016.3 |
| 20260508212435 | 11 | 111 | 1.6 | 1.6 | 0.00 | 0.00 | 0.00 | 83 | 1016.3 |
| 20260508211937 | 11 | 109 | 0.0 | 0.0 | 0.00 | 0.00 | 0.00 | 83 | 1016.2 |
| 20260508211436 | 12 | 109 | 0.0 | 1.6 | 0.00 | 0.00 | 0.00 | 83 | 1016.3 |
| 20260508210936 | 12 | 109 | 1.6 | 1.6 | 0.00 | 0.00 | 0.00 | 82 | 1016.3 |
| 20260508210436 | 12 | 70 | 0.0 | 3.2 | 0.00 | 0.00 | 0.00 | 82 | 1016.4 |
| 20260508205936 | 12 | 125 | 0.0 | 3.2 | 0.00 | 0.00 | 0.00 | 82 | 1016.4 |
| 20260508205435 | 12 | 153 | 0.0 | 0.0 | 0.00 | 0.00 | 0.00 | 81 | 1016.5 |
| 20260508204936 | 12 | 153 | 1.6 | 3.2 | 0.00 | 0.00 | 0.00 | 80 | 1016.4 |
| 20260508204435 | 12 | 148 | 0.0 | 1.6 | 0.00 | 0.00 | 0.00 | 81 | 1016.4 |
| 20260508203936 | 12 | 147 | 0.0 | 1.6 | 0.00 | 0.00 | 0.00 | 80 | 1016.4 |
| 20260508203436 | 12 | 150 | 1.6 | 1.6 | 0.00 | 0.00 | 0.00 | 80 | 1016.3 |
| 20260508202936 | 13 | 140 | 1.6 | 3.2 | 0.00 | 0.00 | 0.00 | 79 | 1016.3 |
| 20260508202436 | 13 | 127 | 0.0 | 3.2 | 0.00 | 0.00 | 0.00 | 78 | 1016.2 |
| 20260508201936 | 13 | 36 | 0.0 | 0.0 | 0.00 | 0.00 | 0.00 | 77 | 1016.1 |
| 20260508201436 | 13 | 36 | 0.0 | 1.6 | 0.00 | 0.00 | 0.00 | 77 | 1016.1 |
| 20260508200935 | 13 | 36 | 0.0 | 3.2 | 0.00 | 0.00 | 0.00 | 76 | 1016.0 |
| 20260508200436 | 13 | 27 | 1.6 | 1.6 | 0.00 | 0.00 | 0.00 | 75 | 1016.1 |
| 20260508195935 | 14 | 118 | 0.0 | 0.0 | 0.00 | 0.00 | 0.00 | 75 | 1015.9 |
| 20260508195436 | 14 | 118 | 0.0 | 1.6 | 0.00 | 0.00 | 0.00 | 74 | 1015.9 |
| 20260508194936 | 14 | 121 | 1.6 | 3.2 | 0.00 | 0.00 | 0.00 | 73 | 1015.9 |
| 20260508194435 | 15 | 355 | 0.0 | 1.6 | 0.00 | 0.00 | 0.00 | 72 | 1015.8 |
| 20260508193936 | 15 | 360 | 0.0 | 3.2 | 0.00 | 0.00 | 0.00 | 72 | 1015.8 |
| 20260508193436 | 15 | 129 | 0.0 | 1.6 | 0.00 | 0.00 | 0.00 | 72 | 1015.7 |
| 20260508192936 | 15 | 124 | 0.0 | 3.2 | 0.00 | 0.00 | 0.00 | 71 | 1015.6 |
| 20260508192436 | 15 | 100 | 1.6 | 3.2 | 0.00 | 0.00 | 0.00 | 70 | 1015.5 |
| 20260508191936 | 16 | 39 | 3.2 | 6.4 | 0.00 | 0.00 | 0.00 | 70 | 1015.5 |
| 20260508191436 | 16 | 296 | 1.6 | 6.4 | 0.00 | 0.00 | 0.00 | 70 | 1015.4 |
| 20260508190936 | 16 | 35 | 1.6 | 9.7 | 0.00 | 0.00 | 0.00 | 70 | 1015.3 |
| 20260508190435 | 16 | 63 | 1.6 | 9.7 | 0.00 | 0.00 | 0.00 | 70 | 1015.2 |
| 20260508185936 | 16 | 187 | 1.6 | 6.4 | 0.00 | 0.00 | 0.00 | 69 | 1015.2 |
| 20260508185435 | 16 | 63 | 4.8 | 9.7 | 0.00 | 0.00 | 0.00 | 69 | 1015.1 |
| 20260508184934 | 16 | 355 | 3.2 | 8.0 | 0.00 | 0.00 | 0.00 | 68 | 1015.0 |
| 20260508184436 | 16 | 190 | 3.2 | 8.0 | 0.00 | 0.00 | 0.00 | 68 | 1015.0 |
| 20260508183936 | 17 | 222 | 1.6 | 6.4 | 0.00 | 0.00 | 0.00 | 68 | 1014.9 |
| 20260508183436 | 17 | 297 | 3.2 | 11.3 | 0.00 | 0.00 | 0.00 | 67 | 1014.8 |
| 20260508182935 | 17 | 343 | 4.8 | 11.3 | 0.00 | 0.00 | 0.00 | 67 | 1014.8 |
| 20260508182436 | 17 | 218 | 3.2 | 16.1 | 0.00 | 0.00 | 0.00 | 66 | 1014.8 |
| 20260508181936 | 17 | 17 | 4.8 | 11.3 | 0.00 | 0.00 | 0.00 | 66 | 1014.7 |
| 20260508181435 | 17 | 277 | 4.8 | 12.9 | 0.00 | 0.00 | 0.00 | 66 | 1014.7 |
| 20260508180935 | 17 | 355 | 4.8 | 11.3 | 0.00 | 0.00 | 0.00 | 66 | 1014.6 |
| 20260508180435 | 18 | 98 | 1.6 | 11.3 | 0.00 | 0.00 | 0.00 | 65 | 1014.6 |
| 20260508175935 | 18 | 70 | 4.8 | 14.5 | 0.00 | 0.00 | 0.00 | 65 | 1014.5 |
| 20260508175435 | 18 | 41 | 4.8 | 12.9 | 0.00 | 0.00 | 0.00 | 64 | 1014.5 |
| 20260508174935 | 18 | 327 | 3.2 | 16.1 | 0.00 | 0.00 | 0.00 | 64 | 1014.4 |
| 20260508174435 | 18 | 275 | 3.2 | 11.3 | 0.00 | 0.00 | 0.00 | 64 | 1014.3 |
| 20260508173935 | 18 | 348 | 8.0 | 12.9 | 0.00 | 0.00 | 0.00 | 64 | 1014.3 |
| 20260508173436 | 18 | 5 | 8.0 | 14.5 | 0.00 | 0.00 | 0.00 | 63 | 1014.2 |
| 20260508172936 | 18 | 34 | 6.4 | 12.9 | 0.00 | 0.00 | 0.00 | 63 | 1014.2 |
| 20260508172435 | 19 | 323 | 6.4 | 14.5 | 0.00 | 0.00 | 0.00 | 62 | 1014.1 |
| 20260508171935 | 19 | 311 | 4.8 | 12.9 | 0.00 | 0.00 | 0.00 | 62 | 1014.1 |
| 20260508171435 | 19 | 85 | 1.6 | 11.3 | 0.00 | 0.00 | 0.00 | 62 | 1014.1 |
| 20260508170935 | 19 | 53 | 6.4 | 16.1 | 0.00 | 0.00 | 0.00 | 60 | 1014.0 |
| 20260508170436 | 19 | 349 | 6.4 | 12.9 | 0.00 | 0.00 | 0.00 | 60 | 1014.0 |
| 20260508165936 | 20 | 267 | 4.8 | 14.5 | 0.00 | 0.00 | 0.00 | 60 | 1013.9 |
| 20260508165436 | 20 | 189 | 4.8 | 16.1 | 0.00 | 0.00 | 0.00 | 59 | 1013.9 |
| 20260508164935 | 20 | 50 | 4.8 | 20.9 | 0.00 | 0.00 | 0.00 | 59 | 1013.9 |
| 20260508164435 | 20 | 355 | 6.4 | 12.9 | 0.00 | 0.00 | 0.00 | 59 | 1013.9 |
| 20260508163936 | 20 | 238 | 4.8 | 12.9 | 0.00 | 0.00 | 0.00 | 59 | 1013.9 |
| 20260508163435 | 20 | 294 | 4.8 | 11.3 | 0.00 | 0.00 | 0.00 | 59 | 1014.0 |
| 20260508162936 | 20 | 335 | 4.8 | 19.3 | 0.00 | 0.00 | 0.00 | 58 | 1014.0 |
| 20260508162436 | 20 | 310 | 3.2 | 9.7 | 0.00 | 0.00 | 0.00 | 59 | 1014.0 |
| 20260508161935 | 20 | 258 | 3.2 | 17.7 | 0.00 | 0.00 | 0.00 | 60 | 1014.0 |
| 20260508161436 | 21 | 92 | 6.4 | 19.3 | 0.00 | 0.00 | 0.00 | 57 | 1014.0 |
| 20260508160935 | 21 | 355 | 6.4 | 14.5 | 0.00 | 0.00 | 0.00 | 57 | 1014.0 |
| 20260508160435 | 21 | 304 | 6.4 | 17.7 | 0.00 | 0.00 | 0.00 | 58 | 1014.0 |
| 20260508155936 | 21 | 48 | 6.4 | 12.9 | 0.00 | 0.00 | 0.00 | 57 | 1014.1 |
| 20260508155435 | 21 | 44 | 4.8 | 16.1 | 0.00 | 0.00 | 0.00 | 58 | 1014.1 |
| 20260508154935 | 21 | 5 | 8.0 | 19.3 | 0.00 | 0.00 | 0.00 | 55 | 1014.1 |
| 20260508154436 | 21 | 200 | 6.4 | 14.5 | 0.00 | 0.00 | 0.00 | 57 | 1014.0 |
| 20260508153936 | 21 | 334 | 6.4 | 12.9 | 0.00 | 0.00 | 0.00 | 55 | 1014.1 |
| 20260508153435 | 21 | 54 | 6.4 | 14.5 | 0.00 | 0.00 | 0.00 | 55 | 1014.0 |
| 20260508152934 | 21 | 355 | 6.4 | 16.1 | 0.00 | 0.00 | 0.00 | 55 | 1014.1 |
| 20260508152436 | 21 | 11 | 4.8 | 12.9 | 0.00 | 0.00 | 0.00 | 56 | 1014.1 |
| 20260508151934 | 22 | 218 | 9.7 | 20.9 | 0.00 | 0.00 | 0.00 | 54 | 1014.2 |
| 20260508151435 | 21 | 348 | 6.4 | 12.9 | 0.00 | 0.00 | 0.00 | 53 | 1014.2 |
| 20260508150936 | 22 | 310 | 4.8 | 19.3 | 0.00 | 0.00 | 0.00 | 54 | 1014.3 |
| 20260508150435 | 22 | 24 | 4.8 | 9.7 | 0.00 | 0.00 | 0.00 | 55 | 1014.3 |
| 20260508145935 | 22 | 317 | 4.8 | 14.5 | 0.00 | 0.00 | 0.00 | 55 | 1014.3 |
| 20260508145436 | 22 | 292 | 4.8 | 16.1 | 0.00 | 0.00 | 0.00 | 55 | 1014.4 |
| 20260508144936 | 22 | 257 | 4.8 | 11.3 | 0.00 | 0.00 | 0.00 | 56 | 1014.3 |
| 20260508144435 | 22 | 44 | 6.4 | 16.1 | 0.00 | 0.00 | 0.00 | 55 | 1014.4 |
| 20260508143935 | 22 | 343 | 6.4 | 17.7 | 0.00 | 0.00 | 0.00 | 57 | 1014.4 |
| 20260508143435 | 22 | 30 | 6.4 | 14.5 | 0.00 | 0.00 | 0.00 | 56 | 1014.5 |
| 20260508142935 | 22 | 360 | 4.8 | 11.3 | 0.00 | 0.00 | 0.00 | 53 | 1014.6 |
| 20260508142435 | 22 | 331 | 6.4 | 12.9 | 0.00 | 0.00 | 0.00 | 56 | 1014.6 |
| 20260508141936 | 22 | 330 | 8.0 | 14.5 | 0.00 | 0.00 | 0.00 | 55 | 1014.7 |
| 20260508141436 | 22 | 35 | 4.8 | 12.9 | 0.00 | 0.00 | 0.00 | 57 | 1014.7 |
| 20260508140935 | 22 | 5 | 6.4 | 14.5 | 0.00 | 0.00 | 0.00 | 56 | 1014.7 |
| 20260508140435 | 22 | 96 | 6.4 | 14.5 | 0.00 | 0.00 | 0.00 | 56 | 1014.7 |
| 20260508135936 | 22 | 348 | 6.4 | 14.5 | 0.00 | 0.00 | 0.00 | 56 | 1014.8 |
| 20260508135436 | 22 | 329 | 3.2 | 12.9 | 0.00 | 0.00 | 0.00 | 55 | 1014.8 |
| 20260508134936 | 22 | 5 | 3.2 | 11.3 | 0.00 | 0.00 | 0.00 | 55 | 1014.8 |
| 20260508134435 | 22 | 5 | 3.2 | 16.1 | 0.00 | 0.00 | 0.00 | 57 | 1014.8 |
| 20260508133935 | 22 | 303 | 6.4 | 14.5 | 0.00 | 0.00 | 0.00 | 56 | 1014.9 |
| 20260508133435 | 22 | 310 | 4.8 | 11.3 | 0.00 | 0.00 | 0.00 | 59 | 1014.9 |
| 20260508132936 | 22 | 336 | 3.2 | 12.9 | 0.00 | 0.00 | 0.00 | 59 | 1015.0 |
| 20260508132435 | 21 | 30 | 3.2 | 11.3 | 0.00 | 0.00 | 0.00 | 53 | 1015.0 |
| 20260508131935 | 21 | 350 | 3.2 | 12.9 | 0.00 | 0.00 | 0.00 | 61 | 1015.0 |
| 20260508131435 | 21 | 263 | 3.2 | 8.0 | 0.00 | 0.00 | 0.00 | 56 | 1015.1 |
| 20260508130935 | 22 | 199 | 4.8 | 11.3 | 0.00 | 0.00 | 0.00 | 61 | 1015.2 |
| 20260508130435 | 22 | 193 | 8.0 | 17.7 | 0.00 | 0.00 | 0.00 | 61 | 1015.2 |
| 20260508125935 | 21 | 72 | 8.0 | 16.1 | 0.00 | 0.00 | 0.00 | 58 | 1015.2 |
| 20260508125436 | 22 | 320 | 4.8 | 12.9 | 0.00 | 0.00 | 0.00 | 56 | 1015.3 |
| 20260508124935 | 21 | 325 | 6.4 | 12.9 | 0.00 | 0.00 | 0.00 | 62 | 1015.3 |
| 20260508124435 | 21 | 335 | 6.4 | 14.5 | 0.00 | 0.00 | 0.00 | 60 | 1015.4 |
| 20260508123936 | 21 | 360 | 4.8 | 12.9 | 0.00 | 0.00 | 0.00 | 62 | 1015.4 |
| 20260508123436 | 21 | 332 | 6.4 | 16.1 | 0.00 | 0.00 | 0.00 | 59 | 1015.4 |
| 20260508122935 | 21 | 11 | 4.8 | 16.1 | 0.00 | 0.00 | 0.00 | 65 | 1015.5 |
| 20260508122435 | 21 | 246 | 4.8 | 14.5 | 0.00 | 0.00 | 0.00 | 61 | 1015.5 |
| 20260508121935 | 21 | 311 | 8.0 | 12.9 | 0.00 | 0.00 | 0.00 | 61 | 1015.6 |
| 20260508121434 | 21 | 331 | 4.8 | 12.9 | 0.00 | 0.00 | 0.00 | 65 | 1015.5 |
| 20260508120935 | 20 | 5 | 3.2 | 9.7 | 0.00 | 0.00 | 0.00 | 66 | 1015.6 |
| 20260508120435 | 21 | 5 | 6.4 | 9.7 | 0.00 | 0.00 | 0.00 | 63 | 1015.7 |
| 20260508115935 | 21 | 88 | 1.6 | 9.7 | 0.00 | 0.00 | 0.00 | 62 | 1015.6 |
| 20260508115434 | 20 | 269 | 3.2 | 12.9 | 0.00 | 0.00 | 0.00 | 69 | 1015.6 |
| 20260508114936 | 20 | 360 | 4.8 | 11.3 | 0.00 | 0.00 | 0.00 | 64 | 1015.6 |
| 20260508114435 | 20 | 59 | 3.2 | 9.7 | 0.00 | 0.00 | 0.00 | 67 | 1015.7 |
| 20260508113935 | 20 | 309 | 1.6 | 8.0 | 0.00 | 0.00 | 0.00 | 67 | 1015.8 |
| 20260508113435 | 20 | 262 | 3.2 | 11.3 | 0.00 | 0.00 | 0.00 | 68 | 1015.8 |
| 20260508112935 | 19 | 313 | 6.4 | 14.5 | 0.00 | 0.00 | 0.00 | 67 | 1015.9 |
| 20260508112435 | 19 | 101 | 4.8 | 12.9 | 0.00 | 0.00 | 0.00 | 64 | 1015.9 |
| 20260508111936 | 19 | 10 | 3.2 | 14.5 | 0.00 | 0.00 | 0.00 | 68 | 1016.0 |
| 20260508111435 | 18 | 333 | 1.6 | 12.9 | 0.00 | 0.00 | 0.00 | 66 | 1016.1 |
| 20260508110936 | 18 | 294 | 3.2 | 14.5 | 0.00 | 0.00 | 0.00 | 67 | 1016.1 |
| 20260508110436 | 18 | 262 | 9.7 | 12.9 | 0.00 | 0.00 | 0.00 | 66 | 1016.2 |
| 20260508105935 | 18 | 332 | 3.2 | 17.7 | 0.00 | 0.00 | 0.00 | 65 | 1016.3 |
| 20260508105435 | 18 | 17 | 3.2 | 11.3 | 0.00 | 0.00 | 0.00 | 67 | 1016.3 |
| 20260508104935 | 18 | 140 | 9.7 | 14.5 | 0.00 | 0.00 | 0.00 | 68 | 1016.4 |
| 20260508104435 | 18 | 229 | 3.2 | 9.7 | 0.00 | 0.00 | 0.00 | 63 | 1016.3 |
| 20260508103935 | 18 | 19 | 6.4 | 12.9 | 0.00 | 0.00 | 0.00 | 64 | 1016.4 |
| 20260508103436 | 17 | 16 | 4.8 | 8.0 | 0.00 | 0.00 | 0.00 | 68 | 1016.5 |
| 20260508102934 | 17 | 337 | 3.2 | 8.0 | 0.00 | 0.00 | 0.00 | 71 | 1016.5 |
| 20260508102436 | 17 | 215 | 3.2 | 12.9 | 0.00 | 0.00 | 0.00 | 64 | 1016.5 |
| 20260508101935 | 17 | 189 | 3.2 | 8.0 | 0.00 | 0.00 | 0.00 | 70 | 1016.5 |
| 20260508101436 | 17 | 90 | 4.8 | 9.7 | 0.00 | 0.00 | 0.00 | 67 | 1016.6 |
| 20260508100934 | 17 | 311 | 3.2 | 9.7 | 0.00 | 0.00 | 0.00 | 68 | 1016.5 |
| 20260508100435 | 16 | 32 | 3.2 | 12.9 | 0.00 | 0.00 | 0.00 | 73 | 1016.6 |
| 20260508095935 | 16 | 231 | 4.8 | 12.9 | 0.00 | 0.03 | 0.00 | 73 | 1016.7 |
| 20260508095436 | 16 | 69 | 1.6 | 11.3 | 0.00 | 0.03 | 0.00 | 72 | 1016.7 |
| 20260508094935 | 16 | 318 | 1.6 | 9.7 | 0.00 | 0.03 | 0.00 | 75 | 1016.8 |
| 20260508094436 | 16 | 338 | 6.4 | 14.5 | 0.00 | 0.03 | 0.00 | 75 | 1016.8 |
| 20260508093935 | 15 | 334 | 6.4 | 11.3 | 0.00 | 0.03 | 0.00 | 76 | 1016.8 |
| 20260508093435 | 15 | 342 | 3.2 | 11.3 | 0.00 | 0.03 | 0.00 | 78 | 1016.9 |
| 20260508092936 | 15 | 331 | 1.6 | 8.0 | 0.00 | 0.03 | 0.00 | 80 | 1016.9 |
| 20260508092436 | 15 | 336 | 3.2 | 9.7 | 0.00 | 0.03 | 0.00 | 80 | 1017.0 |
| 20260508091936 | 14 | 329 | 3.2 | 9.7 | 0.00 | 0.03 | 0.00 | 85 | 1017.0 |
| 20260508091436 | 13 | 132 | 1.6 | 8.0 | 0.00 | 0.03 | 0.00 | 82 | 1017.0 |
| 20260508090935 | 13 | 342 | 1.6 | 9.7 | 0.00 | 0.03 | 0.00 | 86 | 1017.1 |
| 20260508090436 | 12 | 319 | 1.6 | 11.3 | 0.00 | 0.03 | 0.00 | 88 | 1017.2 |
| 20260508085934 | 12 | 5 | 4.8 | 8.0 | 0.00 | 0.03 | 0.00 | 90 | 1017.2 |
| 20260508085436 | 12 | 319 | 4.8 | 8.0 | 0.00 | 0.03 | 0.00 | 91 | 1017.1 |
| 20260508084936 | 11 | 360 | 1.6 | 8.0 | 0.00 | 0.03 | 0.00 | 91 | 1017.2 |
| 20260508084435 | 11 | 282 | 6.4 | 9.7 | 0.00 | 0.03 | 0.00 | 92 | 1017.2 |
| 20260508083936 | 11 | 313 | 3.2 | 8.0 | 0.00 | 0.03 | 0.00 | 92 | 1017.2 |
| 20260508083435 | 11 | 32 | 1.6 | 3.2 | 0.00 | 0.03 | 0.00 | 92 | 1017.2 |
| 20260508082935 | 10 | 272 | 1.6 | 6.4 | 0.00 | 0.03 | 0.00 | 93 | 1017.2 |
| 20260508082434 | 10 | 346 | 3.2 | 8.0 | 0.00 | 0.03 | 0.00 | 92 | 1017.2 |
| 20260508081935 | 10 | 315 | 3.2 | 8.0 | 0.00 | 0.03 | 0.00 | 92 | 1017.2 |
| 20260508081436 | 10 | 278 | 3.2 | 6.4 | 0.00 | 0.03 | 0.00 | 92 | 1017.3 |
| 20260508080935 | 10 | 321 | 3.2 | 8.0 | 0.00 | 0.03 | 0.00 | 93 | 1017.2 |
| 20260508080435 | 9 | 246 | 1.6 | 4.8 | 0.00 | 0.03 | 0.00 | 93 | 1017.2 |
| 20260508075936 | 9 | 284 | 1.6 | 4.8 | 0.00 | 0.03 | 0.00 | 92 | 1017.2 |